Location: Assche-ter-Heiden
(50.9174°N, 4.1574°E)
Time: 21:26:17
(UTC+00:00)

In-Cosmos 22 Rocket - Pass Details

Date: 20 January 2020
Orbit: 789 x 889 km, 81.2° (Epoch: 25 February)

Event Time Altitude Azimuth Distance (km) Brightness Sun altitude
Rises 06:54:37 0° 347° (NNW) 3,363 7.0 -6.6°
Reaches altitude 10° 06:57:03 10° 347° (NNW) 2,413 6.2 -6.2°
Maximum altitude 07:02:30 86° 261° (W) 810 4.1 -5.4°
Drops below altitude 10° 07:07:48 10° 172° (S) 2,354 7.1 -4.7°
Sets 07:10:09 0° 171° (S) 3,275 7.8 -4.3°
